Weather observations for the past three days for
General Wm J Fox Airfield
Imperial (Metric)
Date Time (pdt) Wind (mph) Vis. (mi.) Weather Sky Cond. Temperature (ºF) Relative Humidity Wind Chill (°F) Heat Index (°F) Pressure Precipitation (in)
Air Dwpt 6 hour altimeter (in) sea level (mb) 1 hr 3 hr 6 hr
Max. Min.
09 12:56 Calm 10.00 Fair CLR 90 32 13% 86 29.91 1010.6
09 11:56 Vrbl 7 10.00 Fair CLR 88 33.1 14% 84 29.93 1011.4
09 10:56 Calm 10.00 Fair CLR 84 30 84.9 60.1 14% 81 29.94 1012.0
09 09:56 Calm 10.00 Fair CLR 81 28 14% 79 29.95 1012.3
09 08:56 W 7 10.00 Fair CLR 78.1 30 17% 77 29.95 1012.5
09 07:56 W 8 10.00 Fair CLR 73.9 34 23% 29.96 1012.7
09 06:56 W 10 10.00 Fair CLR 66 37 34% 29.96 1012.9
09 05:56 W 8 10.00 Fair CLR 61 37 41% 29.95 1012.6
09 04:56 W 8 10.00 Fair CLR 63 39 71.1 63 41% 29.94 1012.1
09 03:56 W 14 10.00 Fair CLR 64.9 41 42% 29.94 1011.8
09 02:56 W 12 10.00 Fair CLR 66 37 34% 29.94 1011.8
09 01:56 W 15 10.00 Fair CLR 68 34 28% 29.94 1011.9
09 00:56 W 16 10.00 Fair CLR 69.1 36 30% 29.95 1012.0
08 23:56 W 17 10.00 Fair CLR 70 37.9 31% 29.95 1012.2
08 22:56 W 15 10.00 Fair CLR 71.1 41 87.1 71.1 34% 29.96 1012.5
08 21:56 W 16 10.00 Fair CLR 71.1 41 34% 29.96 1012.7
08 20:56 W 15 10.00 Fair CLR 73 41 32% 29.94 1012.2
08 19:56 W 20 10.00 Fair CLR 75.9 39 26% 77 29.93 1011.6
08 18:56 W 25 10.00 Fair and Breezy CLR 80.1 37.9 22% 79 29.91 1011.2
08 17:56 W 25 G 32 10.00 Fair and Breezy CLR 84.9 36 17% 82 29.9 1010.8
08 16:56 W 26 10.00 Fair and Windy CLR 87.1 39.9 91.9 82.9 19% 84 29.91 1011.0
08 15:56 W 25 G 31 10.00 Fair and Breezy CLR 89.1 41 19% 85 29.92 1011.0
08 14:56 W 24 G 32 10.00 Light Rain and Breezy CLR 90 42.1 19% 86 29.93 1011.5
08 13:56 W 21 G 30 10.00 Fair and Breezy CLR 90 39 17% 86 29.95 1012.0
08 12:56 W 10 10.00 Fair CLR 89.1 39.9 18% 85 29.96 1012.5
08 11:56 W 13 G 21 10.00 Fair CLR 88 42.1 20% 84 29.97 1012.9
08 10:56 W 8 10.00 Fair CLR 84.9 44.1 84.9 66 24% 82 29.99 1013.7
08 09:56 Calm 10.00 Fair CLR 80.1 44.1 28% 79 30 1014.3
08 08:56 W 13 10.00 Fair CLR 77 48.9 37% 78 30.01 1014.4
08 07:56 W 17 10.00 Fair CLR 73.9 50 43% 30.01 1014.5
08 06:56 W 14 10.00 Fair CLR 68 50 53% 30 1014.1
08 05:56 W 16 10.00 Fair CLR 66 50 56% 29.98 1013.6
08 04:56 W 18 10.00 Fair CLR 66.9 50 71.1 66.9 55% 29.97 1013.0
08 03:56 W 15 10.00 Fair CLR 68 50 53% 29.97 1013.0
08 02:56 W 17 10.00 Fair CLR 68 48.9 51% 29.98 1013.0
08 01:56 W 15 10.00 Fair CLR 70 48 46% 29.98 1013.3
08 00:56 W 15 10.00 Fair CLR 70 46.9 44% 30 1013.9
07 23:56 W 14 10.00 Fair CLR 71.1 46 41% 29.99 1013.7
07 22:56 W 16 10.00 Fair CLR 71.1 46.9 89.1 71.1 42% 29.99 1013.9
07 21:56 W 17 10.00 Fair CLR 72 48.9 44% 30 1014.1
07 20:56 W 21 10.00 Fair and Breezy CLR 72 50 46% 29.98 1013.9
07 19:56 W 24 G 35 10.00 Fair and Breezy CLR 73.9 48.9 41% 29.96 1013.3
07 18:56 W 25 10.00 Fair and Breezy CLR 80.1 46.9 31% 79 29.95 1013.0
07 17:56 W 24 G 32 10.00 Fair and Breezy CLR 86 39.9 20% 83 29.94 1012.5
07 16:56 W 23 G 37 10.00 Fair and Breezy CLR 90 39.9 93 81 17% 86 29.93 1012.2
07 15:56 W 26 10.00 Fair and Windy CLR 91 34 13% 87 29.93 1011.9
07 14:56 W 14 G 32 10.00 Fair CLR 91.9 39 16% 88 29.94 1012.3
07 13:56 Calm 10.00 Fair CLR 89.1 27 11% 85 29.96 1012.9
07 12:56 Calm 10.00 Fair CLR 89.1 33.1 14% 85 29.99 1013.8
07 11:56 E 5 10.00 Fair CLR 86 35.1 16% 83 30.02 1014.8
07 10:56 Calm 10.00 Fair CLR 81 36 81 46.9 20% 79 30.04 1015.5
07 09:56 Calm 10.00 Fair CLR 75.9 39.9 27% 77 30.05 1016.1
07 08:56 SE 3 10.00 Fair CLR 69.1 41 36% 30.06 1016.6
07 07:56 Calm 10.00 Fair CLR 64 43 46% 30.06 1016.9
07 06:56 Calm 10.00 Fair CLR 54 39.9 59% 30.05 1016.6
07 05:56 Calm 10.00 Fair CLR 51.1 39 64% 30.04 1016.3
07 04:56 Vrbl 3 10.00 Fair CLR 51.1 37.9 66.9 51.1 61% 30.04 1016.2
07 03:56 NE 5 10.00 Fair CLR 53.1 39.9 61% 30.04 1016.1
07 02:56 E 5 10.00 Fair CLR 55 39.9 57% 30.04 1016.0
07 01:56 Calm 10.00 Fair CLR 62.1 39.9 44% 30.05 1016.1
07 00:56 Calm 10.00 Fair CLR 63 42.1 47% 30.05 1016.2
06 23:56 SW 5 10.00 Fair CLR 66 42.1 42% 30.04 1015.9
06 22:56 W 12 10.00 Fair CLR 66 41 84 66 40% 30.04 1016.0
06 21:56 W 12 10.00 Fair CLR 66.9 41 39% 30.03 1015.9
06 20:56 W 17 10.00 Fair CLR 69.1 42.1 38% 30.02 1015.4
06 19:56 W 18 10.00 Fair CLR 72 43 35% 30 1014.8
06 18:56 W 16 10.00 Fair CLR 77 46 33% 78 29.98 1014.3
06 17:56 SW 14 10.00 Fair CLR 82 45 27% 80 29.98 1014.2
06 16:56 NE 9 10.00 Fair CLR 84 34 84.9 70 17% 81 29.97 1013.9
06 15:56 Vrbl 7 10.00 Fair CLR 82 34 18% 80 29.98 1014.2
06 14:56 E 12 10.00 Fair CLR 82.9 35.1 18% 80 30.01 1015.0
06 13:56 SE 7 10.00 Fair CLR 80.1 37 21% 79 30.02 1015.4
Date Time (pdt) Wind (mph) Vis. (mi.) Weather Sky Cond. Air Dwpt Max. Min. Relative Humidity Wind Chill (°F) Heat Index (°F) altimeter (in) sea level (mb) 1 hr 3 hr 6 hr
6 hour
Temperature (ºF) Pressure Precipitation (in)